timestamp,surface_pressure_avg,surface_temp_avg,battery_voltage,lat,long
2018-04-17 00:00:00+00:00,362.4562,1.6,13.05,47.84626,-54.09684
2018-04-17 00:10:00+00:00,362.6012,1.6,12.97,47.84626,-54.09684
2018-04-17 00:20:00+00:00,365.1129,1.6,13.05,47.84626,-54.09684
2018-04-17 00:30:00+00:00,361.6597,1.6,13.05,47.84626,-54.09684
2018-04-17 00:40:00+00:00,358.6396,1.6,13.05,47.84626,-54.09684
2018-04-17 00:50:00+00:00,358.8329,1.6,13.05,47.84626,-54.09684
2018-04-17 01:00:00+00:00,356.7796,1.6,12.97,47.84626,-54.09684
2018-04-17 01:10:00+00:00,351.8112,1.6,12.97,47.84626,-54.09684
2018-04-17 01:20:00+00:00,350.7496,1.6,13.05,47.84626,-54.09684
2018-04-17 01:30:00+00:00,351.1697,1.6,13.05,47.84626,-54.09684
2018-04-17 01:40:00+00:00,346.1813,1.6,13.05,47.84626,-54.09684
2018-04-17 01:50:00+00:00,341.0213,1.61,13.05,47.84626,-54.09684
2018-04-17 02:00:00+00:00,340.2047,1.63,12.97,47.84626,-54.09684
2018-04-17 02:10:00+00:00,338.0996,1.63,12.97,47.84626,-54.09684
2018-04-17 02:20:00+00:00,325.9897,1.6,13.05,47.84626,-54.09684
2018-04-17 02:30:00+00:00,317.7463,1.6,13.05,47.84626,-54.09684
2018-04-17 02:40:00+00:00,315.038,1.6,13.05,47.84626,-54.09684
2018-04-17 02:50:00+00:00,304.4064,1.6,13.05,47.84626,-54.09684
2018-04-17 03:00:00+00:00,290.458,1.6,12.97,47.84626,-54.09684
2018-04-17 03:10:00+00:00,285.0731,1.6,12.97,47.84626,-54.09684
2018-04-17 03:20:00+00:00,285.4214,1.6,12.97,47.84626,-54.09684
2018-04-17 03:30:00+00:00,274.4331,1.5,12.97,47.84626,-54.09684
2018-04-17 03:40:00+00:00,263.9164,1.4,13.05,47.84626,-54.09684
2018-04-17 03:50:00+00:00,256.6714,1.3,13.05,47.84626,-54.09684
2018-04-17 04:00:00+00:00,246.5132,1.1,12.97,47.84626,-54.09684
2018-04-17 04:10:00+00:00,231.2648,1.04,12.89,47.84626,-54.09684
2018-04-17 04:20:00+00:00,218.0497,1.02,12.97,47.84626,-54.09684
2018-04-17 04:30:00+00:00,210.6864,1.1,12.97,47.84626,-54.09684
2018-04-17 04:40:00+00:00,197.5665,1.2,12.97,47.84626,-54.09684
2018-04-17 04:50:00+00:00,180.6165,1.1,13.05,47.84626,-54.09684
2018-04-17 05:00:00+00:00,177.2281,1.15,12.97,47.84626,-54.09684
2018-04-17 05:10:00+00:00,178.0331,1.2,12.89,47.84626,-54.09684
2018-04-17 05:20:00+00:00,173.1398,1.2,12.97,47.84626,-54.09684
2018-04-17 05:30:00+00:00,172.2848,1.2,12.97,47.84626,-54.09684
2018-04-17 05:40:00+00:00,173.2098,1.2,12.97,47.84626,-54.09684
2018-04-17 05:50:00+00:00,167.7298,1.25,12.97,47.84626,-54.09684
2018-04-17 06:00:00+00:00,165.3648,1.2,12.97,47.84626,-54.09684
2018-04-17 06:10:00+00:00,164.8798,1.19,12.89,47.84626,-54.09684
2018-04-17 06:20:00+00:00,161.4548,1.1,12.97,47.84626,-54.09684
2018-04-17 06:30:00+00:00,160.1299,1.1,12.97,47.84626,-54.09684
2018-04-17 06:40:00+00:00,161.8981,1.2,12.97,47.84626,-54.09684
2018-04-17 06:50:00+00:00,164.9814,1.2,12.97,47.84626,-54.09684
2018-04-17 07:00:00+00:00,167.2965,1.2,12.97,47.84626,-54.09684
2018-04-17 07:10:00+00:00,173.8115,1.28,12.89,47.84626,-54.09684
2018-04-17 07:20:00+00:00,180.9931,1.3,12.97,47.84626,-54.09684
2018-04-17 07:30:00+00:00,184.4465,1.36,12.97,47.84626,-54.09684
2018-04-17 07:40:00+00:00,189.3431,1.39,12.97,47.84626,-54.09684
2018-04-17 07:50:00+00:00,196.7165,1.4,12.97,47.84626,-54.09684
2018-04-17 08:00:00+00:00,204.0115,1.42,12.97,47.84626,-54.09684
2018-04-17 08:10:00+00:00,206.8548,1.49,12.89,47.84626,-54.09684
2018-04-17 08:20:00+00:00,206.5182,1.5,12.97,47.84626,-54.09684
2018-04-17 08:30:00+00:00,211.4381,1.5,12.97,47.84626,-54.09684
2018-04-17 08:40:00+00:00,217.8265,1.56,12.97,47.84626,-54.09684
2018-04-17 08:50:00+00:00,220.6981,1.59,12.97,47.84626,-54.09684
2018-04-17 09:00:00+00:00,226.4164,1.59,12.97,47.84626,-54.09684
2018-04-17 09:10:00+00:00,234.3264,1.59,12.97,47.84626,-54.09684
2018-04-17 09:20:00+00:00,244.0781,1.6,13.13,47.84626,-54.09684
2018-04-17 09:30:00+00:00,253.3397,1.6,13.29,47.84626,-54.09684
2018-04-17 09:40:00+00:00,261.7764,1.6,13.53,47.84626,-54.09684
2018-04-17 09:50:00+00:00,267.0981,1.6,13.68,47.84626,-54.09684
2018-04-17 10:00:00+00:00,274.2764,1.6,13.84,47.84626,-54.09684
2018-04-17 10:10:00+00:00,281.8914,1.6,14.0,47.84626,-54.09684
2018-04-17 10:20:00+00:00,293.8831,1.6,15.6,47.84626,-54.09684
2018-04-17 10:30:00+00:00,299.9563,1.6,15.83,47.84626,-54.09684
2018-04-17 10:40:00+00:00,302.7547,1.6,15.99,47.84626,-54.09684
2018-04-17 10:50:00+00:00,304.0546,1.54,16.07,47.84626,-54.09684
2018-04-17 11:00:00+00:00,311.4481,1.51,15.75,47.84626,-54.09684
2018-04-17 11:10:00+00:00,316.0063,1.5,15.51,47.84626,-54.09684
2018-04-17 11:20:00+00:00,320.2596,1.5,16.07,47.84626,-54.09684
2018-04-17 11:30:00+00:00,330.3546,1.49,16.15,47.84626,-54.09684
2018-04-17 11:40:00+00:00,339.033,1.5,16.15,47.84626,-54.09684
2018-04-17 11:50:00+00:00,345.488,1.5,16.07,47.84626,-54.09684
2018-04-17 12:00:00+00:00,348.843,1.5,15.6,47.84626,-54.09684
2018-04-17 12:10:00+00:00,352.7464,1.56,15.75,47.84626,-54.09684
2018-04-17 12:20:00+00:00,356.7047,1.6,15.6,47.84626,-54.09684
2018-04-17 12:30:00+00:00,350.0297,1.6,15.35,47.84626,-54.09684
2018-04-17 12:40:00+00:00,348.428,1.6,15.51,47.84626,-54.09684
2018-04-17 12:50:00+00:00,346.2662,1.6,15.75,47.84626,-54.09684
2018-04-17 13:00:00+00:00,339.153,1.6,15.27,47.84626,-54.09684
2018-04-17 13:10:00+00:00,335.2863,1.6,14.96,47.84626,-54.09684
2018-04-17 13:20:00+00:00,334.2579,1.6,15.99,47.84626,-54.09684
2018-04-17 13:30:00+00:00,332.1412,1.6,16.15,47.84626,-54.09684
2018-04-17 13:40:00+00:00,331.9779,1.6,16.23,47.84626,-54.09684
2018-04-17 13:50:00+00:00,334.6964,1.6,16.07,47.84626,-54.09684
2018-04-17 14:00:00+00:00,329.0163,1.6,15.51,47.84626,-54.09684
2018-04-17 14:10:00+00:00,318.7413,1.62,15.51,47.84626,-54.09684
2018-04-17 14:20:00+00:00,319.6763,1.6,15.83,47.84626,-54.09684
2018-04-17 14:30:00+00:00,311.8763,1.64,15.83,47.84626,-54.09684
2018-04-17 14:40:00+00:00,298.0381,1.67,15.75,47.84626,-54.09684
2018-04-17 14:50:00+00:00,290.7831,1.69,15.6,47.84626,-54.09684
2018-04-17 15:00:00+00:00,290.343,1.7,15.11,47.84626,-54.09684
2018-04-17 15:10:00+00:00,281.3713,1.7,15.04,47.84626,-54.09684
2018-04-17 15:20:00+00:00,270.5281,1.7,15.75,47.84626,-54.09684
2018-04-17 15:30:00+00:00,267.3897,1.7,15.51,47.84626,-54.09684
2018-04-17 15:40:00+00:00,261.6147,1.7,15.6,47.84626,-54.09684
2018-04-17 15:50:00+00:00,250.5231,1.7,15.51,47.84626,-54.09684
2018-04-17 16:00:00+00:00,237.5031,1.7,14.72,47.84626,-54.09684
2018-04-17 16:10:00+00:00,230.9681,1.71,14.8,47.84626,-54.09684
2018-04-17 16:20:00+00:00,224.7247,1.72,14.56,47.84626,-54.09684
2018-04-17 16:30:00+00:00,213.1798,1.76,14.96,47.84626,-54.09684
2018-04-17 16:40:00+00:00,200.0531,1.8,15.35,47.84626,-54.09684
2018-04-17 16:50:00+00:00,192.3364,1.8,14.48,47.84626,-54.09684
2018-04-17 17:00:00+00:00,184.9381,1.8,14.24,47.84626,-54.09684
2018-04-17 17:10:00+00:00,176.5481,1.8,14.08,47.84626,-54.09684
2018-04-17 17:20:00+00:00,169.4081,1.8,14.32,47.84626,-54.09684
2018-04-17 17:30:00+00:00,163.2731,1.8,14.24,47.84626,-54.09684
2018-04-17 17:40:00+00:00,159.9232,1.8,14.16,47.84626,-54.09684
2018-04-17 17:50:00+00:00,159.3115,1.8,14.08,47.84626,-54.09684
2018-04-17 18:00:00+00:00,161.1765,1.8,13.92,47.84626,-54.09684
2018-04-17 18:10:00+00:00,161.5215,1.8,13.76,47.84626,-54.09684
2018-04-17 18:20:00+00:00,161.4798,1.8,13.84,47.84626,-54.09684
2018-04-17 18:30:00+00:00,164.0815,1.8,13.68,47.84626,-54.09684
2018-04-17 18:40:00+00:00,163.6598,1.8,13.68,47.84626,-54.09684
2018-04-17 18:50:00+00:00,164.3382,1.8,13.6,47.84626,-54.09684
2018-04-17 19:00:00+00:00,170.2765,1.8,13.44,47.84626,-54.09684
2018-04-17 19:10:00+00:00,171.7948,1.8,13.37,47.84626,-54.09684
2018-04-17 19:20:00+00:00,171.6765,1.8,13.44,47.84626,-54.09684
2018-04-17 19:30:00+00:00,177.4581,1.8,13.44,47.84626,-54.09684
2018-04-17 19:40:00+00:00,187.9448,1.8,13.44,47.84626,-54.09684
2018-04-17 19:50:00+00:00,196.0781,1.8,13.44,47.84626,-54.09684
2018-04-17 20:00:00+00:00,200.0381,1.8,13.29,47.84626,-54.09684
2018-04-17 20:10:00+00:00,208.8681,1.83,13.29,47.84626,-54.09684
2018-04-17 20:20:00+00:00,217.2565,1.86,13.29,47.84626,-54.09684
2018-04-17 20:30:00+00:00,222.5048,1.9,13.29,47.84626,-54.09684
2018-04-17 20:40:00+00:00,227.1198,1.94,13.37,47.84626,-54.09684
2018-04-17 20:50:00+00:00,232.7198,2.0,13.29,47.84626,-54.09684
2018-04-17 21:00:00+00:00,237.4248,2.01,13.29,47.84626,-54.09684
2018-04-17 21:10:00+00:00,240.1481,2.02,13.21,47.84626,-54.09684
2018-04-17 21:20:00+00:00,247.4364,2.0,13.21,47.84626,-54.09684
2018-04-17 21:30:00+00:00,259.6114,2.0,13.21,47.84626,-54.09684
2018-04-17 21:40:00+00:00,268.1381,2.0,13.21,47.84626,-54.09684
2018-04-17 21:50:00+00:00,273.1331,2.0,13.21,47.84626,-54.09684
2018-04-17 22:00:00+00:00,285.4913,2.0,13.13,47.84626,-54.09684
2018-04-17 22:10:00+00:00,297.308,2.0,13.05,47.84626,-54.09684
2018-04-17 22:20:00+00:00,302.6346,2.0,13.13,47.84626,-54.09684
2018-04-17 22:30:00+00:00,308.4897,2.0,13.13,47.84626,-54.09684
2018-04-17 22:40:00+00:00,324.1046,2.0,13.13,47.84626,-54.09684
2018-04-17 22:50:00+00:00,331.9697,2.0,13.13,47.84626,-54.09684
2018-04-17 23:00:00+00:00,337.3346,2.0,13.05,47.84626,-54.09684
2018-04-17 23:10:00+00:00,342.4946,2.0,13.05,47.84626,-54.09684
2018-04-17 23:20:00+00:00,351.1647,1.99,13.13,47.84626,-54.09684
2018-04-17 23:30:00+00:00,356.4412,1.95,13.13,47.84626,-54.09684
2018-04-17 23:40:00+00:00,360.1364,1.93,13.13,47.84626,-54.09684
2018-04-17 23:50:00+00:00,364.6528,1.95,13.13,47.84626,-54.09684
